スパール彗星

242P/Spahr (2012)

English version
Home page
Updated on May 11, 2014

---------------------------------------------------------------------

・ プロフィール

符号 242P/2010 P3
検出日 2010年8月14日
検出光度 20.0等
検出者 G. Hug (Scranton, KS, U.S.A.)

・ 写真集

・ 軌道要素

Epoch 2012 Apr. 23.0 TT = JDT 2456040.5
T 2012 Apr. 3.58454 TT                                  MPC
q   3.9799233            (2000.0)            P               Q
n   0.07601931     Peri.  247.68548     +0.36912506     -0.92935148
a   5.5189117      Node   180.77321     +0.91824942     +0.36349007
e   0.2788572      Incl.   32.48282     -0.14340397     -0.06465911
P  13.0
From 416 observations 1997 Oct. 29-2012 Dec. 17, mean residual 0".6.

・ 光度変化

        m1 = 1.0 + 5 logΔ + 22.5 log r(t - 120)

---------------------------------------------------------------------

軌道要素はM.P.E.C. 2012-Y30に掲載されたものです。
光度グラフはComet for Windowsで作成したものです。

---------------------------------------------------------------------

Copyright(C) Seiichi Yoshida (comet@aerith.net). All rights reserved.